SL-12 DEB, 43541

Orbit data source: Space-Track

SL-12 DEB, 43541 is space debris in HEO originally from a launch on Fri, 26 Oct 2007 UTC launched from the Tyuratam Missile And Space Complex (TTMTR). Debris objects in space refer to the collection of defunct objects orbiting the Earth. Examples of debris include non-operational satellites, rocket bodies, and fragments generated from explosions, collisions, or faulty payload assembly.

Loading next visibility...
Identifier
43541, 2007-052AH
Orbit
HEO
Country
Flag of CISCIS
Related business
Manufacturer
RKKE
Mission
Spacecraft
Bus & Motor
Unknown
Mass
Unknown
Launch date (UTC)
2007-10-26 (18 years ago)
Launch vehicle
Unknown
Launch site
Tyuratam Missile And Space Complex (TTMTR)
Object type
Payload
Rocket body
Debris
Shape & HBR
Unknown
Radar Cross Section
Medium (>0.1 m² and <1 m²)

Expand to show TLE details & history
Last TLE update: 15 hours ago

TLE from 15 hours ago
0 SL-12 DEB
1 43541U 07052AH  25258.90307890  .00000719  00000-0  28662-2 0  9992
2 43541  65.2397  15.1964 5683074 223.8505  73.7068  4.25875517111968
Epoch: 2025-09-15T21:40Z
TLE epoch observation values (Epoch: 2025-09-15T21:40:26.016Z)
Latitude
-0.00002°
Longitude
54.98214°
Altitude
12,088.885 km
Speed
4.287 km/s
True Right ascension
01h 00m 45s
True Declination
0° 00' 00"
Sunlit
Object was in daylight at epoch
Visualization orbit readout
Latitude
Unknown
Longitude
Unknown
Altitude
Unknown
Speed
Unknown
Apparent Right ascension
Unknown
Apparent Declination
Unknown
Sunlit
N/A
Visualization observer readout
Local Sidereal Time
05:39:14
Azimuth
Unknown
Elevation
Unknown
Doppler factor
Unknown
Orbital elements
Apogee altitude
18,834.216 km
Perigee altitude
561.82 km
Semi-major axis
16,076.155 km
Eccentricity
0.56831
Inclination
65.2397°
RAAN
15.1964°
Arg. of periapsis
223.8505°
True anomaly
136.2418°
Mean anomaly
73.7068°
Eccentric anomaly
105.13845°
Mean motion
1.0648 °/min
Orbital period
338.09 mins
BSTAR
0.0028662
Loading maneuver chart data...
Computing Atmospheric mass density...
Loading historical data...
Loading historical data...
Loading historical data...
Loading historical data...
Loading historical data...
Loading historical data...
Loading historical data...

Documentation

Showing up to 5 results
|